Time,TemperatureF,DewpointF,PressureIn,WindDirection,WindDirectionDegrees,WindSpeedMPH,WindSpeedGustMPH,Humidity,HourlyPrecipIn,Conditions,Clouds,dailyrainin,SoftwareType,DateUTC
2013-06-29 00:00:00,82.4,63.0,-100.00,ENE,68,0.0,0.0,52,0.00,,,0.00,meteohub,2013-06-29 05:00:00,
2013-06-29 00:02:00,82.2,62.8,-100.00,ENE,68,0.0,0.0,52,0.00,,,0.00,meteohub,2013-06-29 05:02:00,
2013-06-29 00:04:00,82.2,63.3,-100.00,ENE,68,0.0,0.0,53,0.00,,,0.00,meteohub,2013-06-29 05:04:00,
2013-06-29 00:06:00,82.2,63.3,-100.00,ENE,68,0.0,0.0,53,0.00,,,0.00,meteohub,2013-06-29 05:06:00,
2013-06-29 00:08:00,82.2,63.3,-100.00,ENE,68,0.0,0.0,53,0.00,,,0.00,meteohub,2013-06-29 05:08:00,
2013-06-29 00:10:00,82.2,63.3,-100.00,ENE,68,0.0,0.0,53,0.00,,,0.00,meteohub,2013-06-29 05:10:00,
2013-06-29 00:16:00,82.0,63.1,-100.00,ENE,68,0.0,0.0,53,0.00,,,0.00,meteohub,2013-06-29 05:16:00,
2013-06-29 00:17:00,82.0,63.1,-100.00,ENE,68,0.0,0.0,53,0.00,,,0.00,meteohub,2013-06-29 05:17:00,
2013-06-29 00:22:00,81.7,63.0,-100.00,ENE,68,0.0,0.0,53,0.00,,,0.00,meteohub,2013-06-29 05:22:00,
2013-06-29 00:26:00,81.7,63.0,-100.00,ENE,68,0.0,0.0,53,0.00,,,0.00,meteohub,2013-06-29 05:26:00,
2013-06-29 00:30:00,81.5,63.3,-100.00,ENE,68,0.0,0.0,54,0.00,,,0.00,meteohub,2013-06-29 05:30:00,
2013-06-29 00:32:00,81.5,63.3,-100.00,ENE,68,0.0,0.0,54,0.00,,,0.00,meteohub,2013-06-29 05:32:00,
2013-06-29 00:34:00,81.5,63.3,-100.00,ENE,68,0.0,0.0,54,0.00,,,0.00,meteohub,2013-06-29 05:34:00,
2013-06-29 00:36:00,81.3,63.1,-100.00,ENE,68,0.0,0.0,54,0.00,,,0.00,meteohub,2013-06-29 05:36:00,
2013-06-29 00:38:00,81.3,63.1,-100.00,ENE,68,0.0,0.0,54,0.00,,,0.00,meteohub,2013-06-29 05:38:00,
2013-06-29 00:42:00,81.1,63.0,-100.00,ENE,68,0.0,0.0,54,0.00,,,0.00,meteohub,2013-06-29 05:42:00,
2013-06-29 00:44:00,81.1,63.0,-100.00,ENE,68,0.0,0.0,54,0.00,,,0.00,meteohub,2013-06-29 05:44:00,
2013-06-29 00:46:00,81.1,63.0,-100.00,ENE,68,0.0,0.0,54,0.00,,,0.00,meteohub,2013-06-29 05:46:00,
2013-06-29 00:48:00,81.1,63.0,-100.00,ENE,68,0.0,0.0,54,0.00,,,0.00,meteohub,2013-06-29 05:48:00,
2013-06-29 00:52:00,81.0,63.3,-100.00,ENE,68,0.0,0.0,55,0.00,,,0.00,meteohub,2013-06-29 05:52:00,
2013-06-29 00:54:00,80.8,63.1,-100.00,ENE,68,0.0,0.0,55,0.00,,,0.00,meteohub,2013-06-29 05:54:00,
2013-06-29 00:58:00,80.8,63.1,-100.00,ENE,68,0.0,0.0,55,0.00,,,0.00,meteohub,2013-06-29 05:58:00,
2013-06-29 01:02:00,80.6,63.0,-100.00,ENE,68,0.0,0.0,55,0.00,,,0.00,meteohub,2013-06-29 06:02:00,
2013-06-29 01:06:00,80.4,62.8,-100.00,ENE,68,0.0,0.0,55,0.00,,,0.00,meteohub,2013-06-29 06:06:00,
2013-06-29 01:08:00,80.4,62.8,-100.00,ENE,68,0.0,0.0,55,0.00,,,0.00,meteohub,2013-06-29 06:08:00,
2013-06-29 01:10:00,80.4,63.3,-100.00,ENE,68,0.0,0.0,56,0.00,,,0.00,meteohub,2013-06-29 06:10:00,
2013-06-29 01:16:00,80.2,63.1,-100.00,ENE,68,0.0,0.0,56,0.00,,,0.00,meteohub,2013-06-29 06:16:00,
2013-06-29 01:17:00,80.2,63.1,-100.00,ENE,68,0.0,0.0,56,0.00,,,0.00,meteohub,2013-06-29 06:17:00,
2013-06-29 01:22:00,79.9,62.8,-100.00,NE,45,0.0,0.0,56,0.00,,,0.00,meteohub,2013-06-29 06:22:00,
2013-06-29 01:24:00,79.7,62.6,-100.00,NE,45,0.0,0.0,56,0.00,,,0.00,meteohub,2013-06-29 06:24:00,
2013-06-29 01:26:00,79.7,62.6,-100.00,NE,45,0.0,0.0,56,0.00,,,0.00,meteohub,2013-06-29 06:26:00,
2013-06-29 01:28:00,79.5,63.0,-100.00,NE,45,0.0,0.0,57,0.00,,,0.00,meteohub,2013-06-29 06:28:00,
2013-06-29 01:30:00,79.5,63.0,-100.00,NE,45,0.0,0.0,57,0.00,,,0.00,meteohub,2013-06-29 06:30:00,
2013-06-29 01:32:00,79.5,63.0,-100.00,NE,45,0.0,0.0,57,0.00,,,0.00,meteohub,2013-06-29 06:32:00,
2013-06-29 01:34:00,79.5,63.0,-100.00,NE,45,0.0,0.0,57,0.00,,,0.00,meteohub,2013-06-29 06:34:00,
2013-06-29 01:38:00,79.5,63.0,-100.00,NE,45,0.0,0.0,57,0.00,,,0.00,meteohub,2013-06-29 06:38:00,
2013-06-29 01:40:00,79.3,62.8,-100.00,NE,45,0.0,0.0,57,0.00,,,0.00,meteohub,2013-06-29 06:40:00,
2013-06-29 01:44:00,79.3,62.8,-100.00,NE,45,0.0,0.0,57,0.00,,,0.00,meteohub,2013-06-29 06:44:00,
2013-06-29 01:47:00,79.2,62.6,-100.00,NE,45,0.0,0.0,57,0.00,,,0.00,meteohub,2013-06-29 06:47:00,
2013-06-29 01:48:00,79.2,63.1,-100.00,NE,45,0.0,0.0,58,0.00,,,0.00,meteohub,2013-06-29 06:48:00,
2013-06-29 01:52:00,79.0,63.0,-100.00,NE,45,0.0,0.0,58,0.00,,,0.00,meteohub,2013-06-29 06:52:00,
2013-06-29 01:54:00,78.8,62.8,-100.00,NE,45,0.0,0.0,58,0.00,,,0.00,meteohub,2013-06-29 06:54:00,
2013-06-29 02:00:00,78.6,62.6,-100.00,NE,45,0.0,0.0,58,0.00,,,0.00,meteohub,2013-06-29 07:00:00,
2013-06-29 02:02:00,78.6,62.6,-100.00,NE,45,0.0,0.0,58,0.00,,,0.00,meteohub,2013-06-29 07:02:00,
2013-06-29 02:04:00,78.6,63.1,-100.00,NE,45,0.0,0.0,59,0.00,,,0.00,meteohub,2013-06-29 07:04:00,
2013-06-29 02:08:00,78.4,63.0,-100.00,NE,45,0.0,0.0,59,0.00,,,0.00,meteohub,2013-06-29 07:08:00,
2013-06-29 02:10:00,78.4,63.0,-100.00,NE,45,0.0,0.0,59,0.00,,,0.00,meteohub,2013-06-29 07:10:00,
2013-06-29 02:14:00,78.4,63.0,-100.00,NE,45,0.0,0.0,59,0.00,,,0.00,meteohub,2013-06-29 07:14:00,
2013-06-29 02:16:00,78.4,63.0,-100.00,NE,45,0.0,0.0,59,0.00,,,0.00,meteohub,2013-06-29 07:16:00,
2013-06-29 02:18:00,78.4,63.0,-100.00,NE,45,0.0,0.0,59,0.00,,,0.00,meteohub,2013-06-29 07:18:00,
2013-06-29 02:22:00,78.1,63.1,-100.00,NE,45,0.0,0.0,60,0.00,,,0.00,meteohub,2013-06-29 07:22:00,
2013-06-29 02:24:00,78.1,62.6,-100.00,NE,45,0.0,0.0,59,0.00,,,0.00,meteohub,2013-06-29 07:24:00,
2013-06-29 02:27:00,78.1,62.6,-100.00,NE,45,0.0,0.0,59,0.00,,,0.00,meteohub,2013-06-29 07:27:00,
2013-06-29 02:29:00,78.1,62.6,-100.00,NE,45,0.0,0.0,59,0.00,,,0.00,meteohub,2013-06-29 07:29:00,
2013-06-29 02:31:00,78.1,63.1,-100.00,NE,45,0.0,0.0,60,0.00,,,0.00,meteohub,2013-06-29 07:31:00,
2013-06-29 02:35:00,77.9,63.0,-100.00,NE,45,0.0,0.0,60,0.00,,,0.00,meteohub,2013-06-29 07:35:00,
2013-06-29 02:37:00,77.7,62.8,-100.00,NE,45,0.0,0.0,60,0.00,,,0.00,meteohub,2013-06-29 07:37:00,
2013-06-29 02:39:00,77.7,62.8,-100.00,NE,45,0.0,0.0,60,0.00,,,0.00,meteohub,2013-06-29 07:39:00,
2013-06-29 02:41:00,77.7,63.1,-100.00,NE,45,0.0,0.0,61,0.00,,,0.00,meteohub,2013-06-29 07:41:00,
2013-06-29 02:43:00,77.7,63.1,-100.00,NE,45,0.0,0.0,61,0.00,,,0.00,meteohub,2013-06-29 07:43:00,
2013-06-29 02:45:00,77.7,63.1,-100.00,NE,45,0.0,0.0,61,0.00,,,0.00,meteohub,2013-06-29 07:45:00,
2013-06-29 02:47:00,77.5,63.0,-100.00,NE,45,0.0,0.0,61,0.00,,,0.00,meteohub,2013-06-29 07:47:00,
2013-06-29 02:51:00,77.5,63.0,-100.00,NE,45,0.0,0.0,61,0.00,,,0.00,meteohub,2013-06-29 07:51:00,
2013-06-29 02:53:00,77.4,62.8,-100.00,NE,45,0.0,0.0,61,0.00,,,0.00,meteohub,2013-06-29 07:53:00,
2013-06-29 02:55:00,77.4,62.8,-100.00,NE,45,0.0,0.0,61,0.00,,,0.00,meteohub,2013-06-29 07:55:00,
2013-06-29 02:57:00,77.4,62.8,-100.00,NE,45,0.0,0.0,61,0.00,,,0.00,meteohub,2013-06-29 07:57:00,
2013-06-29 03:01:00,77.2,62.6,-100.00,NE,45,0.0,0.0,61,0.00,,,0.00,meteohub,2013-06-29 08:01:00,
2013-06-29 03:03:00,77.2,62.6,-100.00,NE,45,0.0,0.0,61,0.00,,,0.00,meteohub,2013-06-29 08:03:00,
2013-06-29 03:07:00,76.8,62.4,-100.00,NE,45,0.0,0.0,61,0.00,,,0.00,meteohub,2013-06-29 08:07:00,
2013-06-29 03:13:00,76.8,62.8,-100.00,NE,45,0.0,0.0,62,0.00,,,0.00,meteohub,2013-06-29 08:13:00,
2013-06-29 03:15:00,76.8,62.8,-100.00,NE,45,0.0,0.0,62,0.00,,,0.00,meteohub,2013-06-29 08:15:00,
2013-06-29 03:17:00,76.8,62.8,-100.00,NE,45,0.0,0.0,62,0.00,,,0.00,meteohub,2013-06-29 08:17:00,
2013-06-29 03:19:00,76.8,62.8,-100.00,NE,45,0.0,0.0,62,0.00,,,0.00,meteohub,2013-06-29 08:19:00,
2013-06-29 03:21:00,76.6,62.6,-100.00,NE,45,0.0,0.0,62,0.00,,,0.00,meteohub,2013-06-29 08:21:00,
2013-06-29 03:25:00,76.6,62.6,-100.00,NE,45,0.0,0.0,62,0.00,,,0.00,meteohub,2013-06-29 08:25:00,
2013-06-29 03:27:00,76.6,62.6,-100.00,NE,45,0.0,0.0,62,0.00,,,0.00,meteohub,2013-06-29 08:27:00,
2013-06-29 03:29:00,76.5,62.4,-100.00,NE,45,0.0,0.0,62,0.00,,,0.00,meteohub,2013-06-29 08:29:00,
2013-06-29 03:32:00,76.3,62.8,-100.00,NE,45,0.0,0.0,63,0.00,,,0.00,meteohub,2013-06-29 08:32:00,
2013-06-29 03:35:00,76.3,62.8,-100.00,NE,45,0.0,0.0,63,0.00,,,0.00,meteohub,2013-06-29 08:35:00,
2013-06-29 03:37:00,76.3,62.8,-100.00,NE,45,0.0,0.0,63,0.00,,,0.00,meteohub,2013-06-29 08:37:00,
2013-06-29 03:39:00,76.3,62.8,-100.00,NE,45,0.0,0.0,63,0.00,,,0.00,meteohub,2013-06-29 08:39:00,
2013-06-29 03:41:00,76.1,62.6,-100.00,NE,45,0.0,0.0,63,0.00,,,0.00,meteohub,2013-06-29 08:41:00,
2013-06-29 03:43:00,76.1,62.6,-100.00,NE,45,0.0,0.0,63,0.00,,,0.00,meteohub,2013-06-29 08:43:00,
2013-06-29 03:45:00,75.9,62.4,-100.00,NE,45,0.0,0.0,63,0.00,,,0.00,meteohub,2013-06-29 08:45:00,
2013-06-29 03:49:00,75.9,62.4,-100.00,NE,45,0.0,0.0,63,0.00,,,0.00,meteohub,2013-06-29 08:49:00,
2013-06-29 03:51:00,75.9,62.4,-100.00,NE,45,0.0,0.0,63,0.00,,,0.00,meteohub,2013-06-29 08:51:00,
2013-06-29 03:57:00,75.7,62.2,-100.00,NE,45,0.0,0.0,63,0.00,,,0.00,meteohub,2013-06-29 08:57:00,
2013-06-29 03:59:00,75.7,62.2,-100.00,NE,45,0.0,0.0,63,0.00,,,0.00,meteohub,2013-06-29 08:59:00,
2013-06-29 04:01:00,75.7,62.2,-100.00,NE,45,0.0,0.0,63,0.00,,,0.00,meteohub,2013-06-29 09:01:00,
2013-06-29 04:03:00,75.6,62.1,-100.00,NE,45,0.0,0.0,63,0.00,,,0.00,meteohub,2013-06-29 09:03:00,
2013-06-29 04:05:00,75.6,62.1,-100.00,NE,45,0.0,0.0,63,0.00,,,0.00,meteohub,2013-06-29 09:05:00,
2013-06-29 04:07:00,75.4,61.9,-100.00,NE,45,0.0,0.0,63,0.00,,,0.00,meteohub,2013-06-29 09:07:00,
2013-06-29 04:11:00,75.4,62.4,-100.00,NE,45,0.0,0.0,64,0.00,,,0.00,meteohub,2013-06-29 09:11:00,
2013-06-29 04:13:00,75.4,62.4,-100.00,NE,45,0.0,0.0,64,0.00,,,0.00,meteohub,2013-06-29 09:13:00,
2013-06-29 04:15:00,75.4,62.4,-100.00,NE,45,0.0,0.0,64,0.00,,,0.00,meteohub,2013-06-29 09:15:00,
2013-06-29 04:17:00,75.2,61.7,-100.00,NE,45,0.0,0.0,63,0.00,,,0.00,meteohub,2013-06-29 09:17:00,
2013-06-29 04:23:00,75.0,62.1,-100.00,NE,45,0.0,0.0,64,0.00,,,0.00,meteohub,2013-06-29 09:23:00,
2013-06-29 04:25:00,75.0,62.1,-100.00,NE,45,0.0,0.0,64,0.00,,,0.00,meteohub,2013-06-29 09:25:00,
2013-06-29 04:27:00,75.0,62.1,-100.00,NE,45,0.0,0.0,64,0.00,,,0.00,meteohub,2013-06-29 09:27:00,
2013-06-29 04:31:00,75.0,62.1,-100.00,NE,45,0.0,0.0,64,0.00,,,0.00,meteohub,2013-06-29 09:31:00,
2013-06-29 04:33:00,74.8,61.9,-100.00,NE,45,0.0,0.0,64,0.00,,,0.00,meteohub,2013-06-29 09:33:00,
2013-06-29 04:39:00,74.8,61.9,-100.00,NE,45,0.0,0.0,64,0.00,,,0.00,meteohub,2013-06-29 09:39:00,
2013-06-29 04:43:00,74.8,61.9,-100.00,NE,45,0.0,0.0,64,0.00,,,0.00,meteohub,2013-06-29 09:43:00,
2013-06-29 04:45:00,74.7,61.7,-100.00,NE,45,0.0,0.0,64,0.00,,,0.00,meteohub,2013-06-29 09:45:00,
2013-06-29 04:47:00,74.8,61.3,-100.00,NE,45,0.0,0.0,63,0.00,,,0.00,meteohub,2013-06-29 09:47:00,
2013-06-29 04:49:00,74.7,61.7,-100.00,NE,45,0.0,0.0,64,0.00,,,0.00,meteohub,2013-06-29 09:49:00,
2013-06-29 04:53:00,74.5,61.0,-100.00,NE,45,0.0,0.0,63,0.00,,,0.00,meteohub,2013-06-29 09:53:00,
2013-06-29 04:59:00,74.5,61.5,-100.00,NE,45,0.0,0.0,64,0.00,,,0.00,meteohub,2013-06-29 09:59:00,
2013-06-29 05:01:00,74.5,61.5,-100.00,NE,45,0.0,0.0,64,0.00,,,0.00,meteohub,2013-06-29 10:01:00,
2013-06-29 05:05:00,74.5,61.5,-100.00,NE,45,0.0,0.0,64,0.00,,,0.00,meteohub,2013-06-29 10:05:00,
2013-06-29 05:07:00,74.3,61.3,-100.00,NE,45,0.0,0.0,64,0.00,,,0.00,meteohub,2013-06-29 10:07:00,
2013-06-29 05:09:00,74.3,61.3,-100.00,NE,45,0.0,0.0,64,0.00,,,0.00,meteohub,2013-06-29 10:09:00,
2013-06-29 05:11:00,74.1,61.2,-100.00,NE,45,0.0,0.0,64,0.00,,,0.00,meteohub,2013-06-29 10:11:00,
2013-06-29 05:15:00,74.1,61.2,-100.00,NE,45,0.0,0.0,64,0.00,,,0.00,meteohub,2013-06-29 10:15:00,
2013-06-29 05:17:00,74.1,61.2,-100.00,NE,45,0.0,0.0,64,0.00,,,0.00,meteohub,2013-06-29 10:17:00,
2013-06-29 05:22:00,74.1,61.2,-100.00,NE,45,0.0,0.0,64,0.00,,,0.00,meteohub,2013-06-29 10:22:00,
2013-06-29 05:24:00,73.9,61.0,-100.00,NE,45,0.0,0.0,64,0.00,,,0.00,meteohub,2013-06-29 10:24:00,
2013-06-29 05:28:00,73.9,61.3,-100.00,NE,45,0.0,0.0,65,0.00,,,0.00,meteohub,2013-06-29 10:28:00,
2013-06-29 05:30:00,73.9,61.3,-100.00,NE,45,0.0,0.0,65,0.00,,,0.00,meteohub,2013-06-29 10:30:00,
2013-06-29 05:34:00,73.8,61.3,-100.00,NE,45,0.0,0.0,65,0.00,,,0.00,meteohub,2013-06-29 10:34:00,
2013-06-29 05:36:00,73.8,61.3,-100.00,NE,45,0.0,0.0,65,0.00,,,0.00,meteohub,2013-06-29 10:36:00,
2013-06-29 05:38:00,73.8,61.3,-100.00,NE,45,0.0,0.0,65,0.00,,,0.00,meteohub,2013-06-29 10:38:00,
2013-06-29 05:44:00,73.6,61.2,-100.00,NE,45,0.0,0.0,65,0.00,,,0.00,meteohub,2013-06-29 10:44:00,
2013-06-29 05:46:00,73.6,61.2,-100.00,NE,45,0.0,0.0,65,0.00,,,0.00,meteohub,2013-06-29 10:46:00,
2013-06-29 05:47:00,73.4,61.0,-100.00,NE,45,0.0,0.0,65,0.00,,,0.00,meteohub,2013-06-29 10:47:00,
2013-06-29 05:52:00,73.2,60.8,-100.00,NE,45,0.0,0.0,65,0.00,,,0.00,meteohub,2013-06-29 10:52:00,
2013-06-29 05:54:00,73.2,60.8,-100.00,NE,45,0.0,0.0,65,0.00,,,0.00,meteohub,2013-06-29 10:54:00,
2013-06-29 05:56:00,73.2,61.2,-100.00,NE,45,0.0,0.0,66,0.00,,,0.00,meteohub,2013-06-29 10:56:00,
2013-06-29 06:00:00,73.2,61.2,-100.00,NE,45,0.0,0.0,66,0.00,,,0.00,meteohub,2013-06-29 11:00:00,
2013-06-29 06:02:00,73.2,61.2,-100.00,NE,45,0.0,0.0,66,0.00,,,0.00,meteohub,2013-06-29 11:02:00,
2013-06-29 06:04:00,73.2,61.2,-100.00,NE,45,0.0,0.0,66,0.00,,,0.00,meteohub,2013-06-29 11:04:00,
2013-06-29 06:06:00,73.2,61.2,-100.00,NE,45,0.0,0.0,66,0.00,,,0.00,meteohub,2013-06-29 11:06:00,
2013-06-29 06:10:00,73.0,61.0,-100.00,NE,45,0.0,0.0,66,0.00,,,0.00,meteohub,2013-06-29 11:10:00,
2013-06-29 06:12:00,73.0,61.0,-100.00,NE,45,0.0,0.0,66,0.00,,,0.00,meteohub,2013-06-29 11:12:00,
2013-06-29 06:14:00,73.0,61.0,-100.00,NE,45,0.0,0.0,66,0.00,,,0.00,meteohub,2013-06-29 11:14:00,
2013-06-29 06:17:00,73.0,61.0,-100.00,NE,45,0.0,0.0,66,0.00,,,0.00,meteohub,2013-06-29 11:17:00,
2013-06-29 06:18:00,73.0,61.0,-100.00,NE,45,0.0,0.0,66,0.00,,,0.00,meteohub,2013-06-29 11:18:00,
2013-06-29 06:20:00,72.9,60.8,-100.00,NE,45,0.0,0.0,66,0.00,,,0.00,meteohub,2013-06-29 11:20:00,
2013-06-29 06:24:00,72.7,61.2,-100.00,NE,45,0.0,0.0,67,0.00,,,0.00,meteohub,2013-06-29 11:24:00,
2013-06-29 06:28:00,72.7,61.2,-100.00,NE,45,0.0,0.0,67,0.00,,,0.00,meteohub,2013-06-29 11:28:00,
2013-06-29 06:30:00,72.7,61.2,-100.00,NE,45,0.0,0.0,67,0.00,,,0.00,meteohub,2013-06-29 11:30:00,
2013-06-29 06:32:00,72.7,61.2,-100.00,NE,45,0.0,0.0,67,0.00,,,0.00,meteohub,2013-06-29 11:32:00,
2013-06-29 06:36:00,72.5,61.0,-100.00,NE,45,0.0,0.0,67,0.00,,,0.00,meteohub,2013-06-29 11:36:00,
2013-06-29 06:40:00,72.3,60.8,-100.00,NE,45,0.0,0.0,67,0.00,,,0.00,meteohub,2013-06-29 11:40:00,
2013-06-29 06:44:00,72.3,60.8,-100.00,NE,45,0.0,0.0,67,0.00,,,0.00,meteohub,2013-06-29 11:44:00,
2013-06-29 06:46:00,72.3,60.8,-100.00,NE,45,0.0,0.0,67,0.00,,,0.00,meteohub,2013-06-29 11:46:00,
2013-06-29 06:50:00,72.3,60.8,-100.00,NE,45,0.0,0.0,67,0.00,,,0.00,meteohub,2013-06-29 11:50:00,
2013-06-29 06:54:00,72.3,60.8,-100.00,NE,45,0.0,0.0,67,0.00,,,0.00,meteohub,2013-06-29 11:54:00,
2013-06-29 06:56:00,72.3,60.8,-100.00,NE,45,0.0,0.0,67,0.00,,,0.00,meteohub,2013-06-29 11:56:00,
2013-06-29 07:00:00,72.3,60.8,-100.00,NE,45,0.0,0.0,67,0.00,,,0.00,meteohub,2013-06-29 12:00:00,
2013-06-29 07:02:00,72.3,60.8,-100.00,NE,45,0.0,0.0,67,0.00,,,0.00,meteohub,2013-06-29 12:02:00,
2013-06-29 07:04:00,72.3,60.8,-100.00,NE,45,0.0,0.0,67,0.00,,,0.00,meteohub,2013-06-29 12:04:00,
2013-06-29 07:06:00,72.3,60.8,-100.00,NE,45,0.0,0.0,67,0.00,,,0.00,meteohub,2013-06-29 12:06:00,
2013-06-29 07:08:00,72.3,60.8,-100.00,NE,45,0.0,0.0,67,0.00,,,0.00,meteohub,2013-06-29 12:08:00,
2013-06-29 07:10:00,72.3,60.8,-100.00,NE,45,0.0,0.0,67,0.00,,,0.00,meteohub,2013-06-29 12:10:00,
2013-06-29 07:12:00,72.1,60.6,-100.00,NE,45,0.0,0.0,67,0.00,,,0.00,meteohub,2013-06-29 12:12:00,
2013-06-29 07:14:00,72.3,60.8,-100.00,NE,45,0.0,0.0,67,0.00,,,0.00,meteohub,2013-06-29 12:14:00,
2013-06-29 07:17:00,72.3,60.8,-100.00,NE,45,0.0,0.0,67,0.00,,,0.00,meteohub,2013-06-29 12:17:00,
2013-06-29 07:22:00,72.3,61.2,-100.00,NE,45,0.0,0.0,68,0.00,,,0.00,meteohub,2013-06-29 12:22:00,
2013-06-29 07:24:00,72.3,61.2,-100.00,NE,45,0.0,0.0,68,0.00,,,0.00,meteohub,2013-06-29 12:24:00,
2013-06-29 07:26:00,72.3,61.2,-100.00,NE,45,0.0,0.0,68,0.00,,,0.00,meteohub,2013-06-29 12:26:00,
2013-06-29 07:30:00,72.5,61.3,-100.00,NE,45,0.0,0.0,68,0.00,,,0.00,meteohub,2013-06-29 12:30:00,
2013-06-29 07:32:00,72.3,61.2,-100.00,NE,45,0.0,0.0,68,0.00,,,0.00,meteohub,2013-06-29 12:32:00,
2013-06-29 07:34:00,72.3,61.2,-100.00,NE,45,0.0,0.0,68,0.00,,,0.00,meteohub,2013-06-29 12:34:00,
2013-06-29 07:38:00,72.5,61.3,-100.00,NE,45,0.0,0.0,68,0.00,,,0.00,meteohub,2013-06-29 12:38:00,
2013-06-29 07:42:00,72.7,61.5,-100.00,NE,45,0.0,0.0,68,0.00,,,0.00,meteohub,2013-06-29 12:42:00,
2013-06-29 07:44:00,72.7,61.5,-100.00,NE,45,0.0,0.0,68,0.00,,,0.00,meteohub,2013-06-29 12:44:00,
2013-06-29 07:46:00,72.7,61.5,-100.00,NE,45,0.0,0.0,68,0.00,,,0.00,meteohub,2013-06-29 12:46:00,
2013-06-29 07:47:00,72.7,61.5,-100.00,NE,45,0.0,0.0,68,0.00,,,0.00,meteohub,2013-06-29 12:47:00,
2013-06-29 07:50:00,73.0,61.5,-100.00,NE,45,0.0,0.0,67,0.00,,,0.00,meteohub,2013-06-29 12:50:00,
2013-06-29 07:52:00,73.0,61.5,-100.00,NE,45,0.0,0.0,67,0.00,,,0.00,meteohub,2013-06-29 12:52:00,
2013-06-29 07:56:00,73.2,61.5,-100.00,NE,45,0.0,0.0,67,0.00,,,0.00,meteohub,2013-06-29 12:56:00,
2013-06-29 07:58:00,73.2,61.5,-100.00,NE,45,0.0,0.0,67,0.00,,,0.00,meteohub,2013-06-29 12:58:00,
2013-06-29 08:00:00,73.4,61.7,-100.00,NE,45,0.0,0.0,67,0.00,,,0.00,meteohub,2013-06-29 13:00:00,
2013-06-29 08:02:00,73.6,61.9,-100.00,NE,45,0.0,0.0,67,0.00,,,0.00,meteohub,2013-06-29 13:02:00,
2013-06-29 08:04:00,73.8,62.1,-100.00,NE,45,0.0,0.0,67,0.00,,,0.00,meteohub,2013-06-29 13:04:00,
2013-06-29 08:07:00,73.9,62.2,-100.00,NE,45,0.0,0.0,67,0.00,,,0.00,meteohub,2013-06-29 13:07:00,
2013-06-29 08:09:00,73.9,62.2,-100.00,NE,45,0.0,0.0,67,0.00,,,0.00,meteohub,2013-06-29 13:09:00,
2013-06-29 08:11:00,73.9,62.2,-100.00,NE,45,0.0,0.0,67,0.00,,,0.00,meteohub,2013-06-29 13:11:00,
2013-06-29 08:15:00,74.5,62.8,-100.00,NE,45,0.0,0.0,67,0.00,,,0.00,meteohub,2013-06-29 13:15:00,
2013-06-29 08:17:00,74.8,63.1,-100.00,NE,45,0.0,0.0,67,0.00,,,0.00,meteohub,2013-06-29 13:17:00,
2013-06-29 08:21:00,74.8,63.1,-100.00,NE,45,0.0,0.0,67,0.00,,,0.00,meteohub,2013-06-29 13:21:00,
2013-06-29 08:23:00,75.4,63.7,-100.00,NE,45,0.0,0.0,67,0.00,,,0.00,meteohub,2013-06-29 13:23:00,
2013-06-29 08:25:00,75.4,63.7,-100.00,NE,45,0.0,0.0,67,0.00,,,0.00,meteohub,2013-06-29 13:25:00,
2013-06-29 08:27:00,75.9,63.7,-100.00,NE,45,0.0,0.0,66,0.00,,,0.00,meteohub,2013-06-29 13:27:00,
2013-06-29 08:32:00,76.3,64.0,-100.00,NE,45,0.0,0.0,66,0.00,,,0.00,meteohub,2013-06-29 13:32:00,
2013-06-29 08:33:00,76.3,64.0,-100.00,NE,45,0.0,0.0,66,0.00,,,0.00,meteohub,2013-06-29 13:33:00,
2013-06-29 08:35:00,76.6,64.0,-100.00,NE,45,0.0,0.0,65,0.00,,,0.00,meteohub,2013-06-29 13:35:00,
2013-06-29 08:37:00,76.8,64.2,-100.00,NE,45,0.0,0.0,65,0.00,,,0.00,meteohub,2013-06-29 13:37:00,
2013-06-29 08:39:00,76.8,64.2,-100.00,NNE,23,0.0,0.0,65,0.00,,,0.00,meteohub,2013-06-29 13:39:00,
2013-06-29 08:43:00,77.4,64.2,-100.00,NNE,23,0.0,0.0,64,0.00,,,0.00,meteohub,2013-06-29 13:43:00,
2013-06-29 08:45:00,77.5,64.4,-100.00,NNE,23,0.0,0.0,64,0.00,,,0.00,meteohub,2013-06-29 13:45:00,
2013-06-29 08:47:00,77.7,64.9,-100.00,NNE,23,0.0,0.0,65,0.00,,,0.00,meteohub,2013-06-29 13:47:00,
2013-06-29 08:51:00,78.1,64.9,-100.00,NNE,23,0.0,0.0,64,0.00,,,0.00,meteohub,2013-06-29 13:51:00,
2013-06-29 08:53:00,78.1,64.9,-100.00,NNE,23,0.0,0.0,64,0.00,,,0.00,meteohub,2013-06-29 13:53:00,
2013-06-29 08:55:00,78.4,65.3,-100.00,NNE,23,0.0,0.0,64,0.00,,,0.00,meteohub,2013-06-29 13:55:00,
2013-06-29 08:59:00,78.6,65.5,-100.00,NNE,23,0.0,0.0,64,0.00,,,0.00,meteohub,2013-06-29 13:59:00,
2013-06-29 09:01:00,78.6,65.5,-100.00,NNE,23,0.0,0.0,64,0.00,,,0.00,meteohub,2013-06-29 14:01:00,
2013-06-29 09:02:00,79.0,65.8,-100.00,NNE,23,0.0,0.0,64,0.00,,,0.00,meteohub,2013-06-29 14:02:00,
2013-06-29 09:03:00,79.0,65.8,-100.00,NNE,23,0.0,0.0,64,0.00,,,0.00,meteohub,2013-06-29 14:03:00,
2013-06-29 09:05:00,79.3,66.0,-100.00,NNE,23,0.0,0.0,64,0.00,,,0.00,meteohub,2013-06-29 14:05:00,
2013-06-29 09:07:00,79.7,66.4,-100.00,NNE,23,0.0,0.0,64,0.00,,,0.00,meteohub,2013-06-29 14:07:00,
2013-06-29 09:09:00,79.9,66.2,-100.00,NE,45,0.0,0.0,63,0.00,,,0.00,meteohub,2013-06-29 14:09:00,
2013-06-29 09:13:00,80.4,66.2,-100.00,NE,45,0.0,0.0,62,0.00,,,0.00,meteohub,2013-06-29 14:13:00,
2013-06-29 09:17:00,81.0,66.2,-100.00,SE,135,0.0,0.0,61,0.00,,,0.00,meteohub,2013-06-29 14:17:00,
2013-06-29 09:19:00,81.1,66.4,-100.00,SE,135,0.0,0.0,61,0.00,,,0.00,meteohub,2013-06-29 14:19:00,
2013-06-29 09:21:00,81.3,66.0,-100.00,SSE,158,0.0,0.0,60,0.00,,,0.00,meteohub,2013-06-29 14:21:00,
2013-06-29 09:27:00,81.9,66.6,-100.00,East,90,0.0,0.0,60,0.00,,,0.00,meteohub,2013-06-29 14:27:00,
2013-06-29 09:29:00,82.6,67.8,-100.00,East,90,0.0,0.0,61,0.00,,,0.00,meteohub,2013-06-29 14:29:00,
2013-06-29 09:31:00,82.8,68.0,-100.00,ENE,68,0.0,0.0,61,0.00,,,0.00,meteohub,2013-06-29 14:31:00,
2013-06-29 09:32:00,82.8,68.0,-100.00,ENE,68,0.0,0.0,61,0.00,,,0.00,meteohub,2013-06-29 14:32:00,
2013-06-29 09:33:00,83.1,67.3,-100.00,NE,45,0.0,0.0,59,0.00,,,0.00,meteohub,2013-06-29 14:33:00,
2013-06-29 09:37:00,83.3,66.9,-100.00,NE,45,0.0,0.0,58,0.00,,,0.00,meteohub,2013-06-29 14:37:00,
2013-06-29 09:39:00,83.8,67.5,-100.00,NE,45,0.0,0.0,58,0.00,,,0.00,meteohub,2013-06-29 14:39:00,
2013-06-29 09:41:00,84.0,67.1,-100.00,NE,45,0.0,0.0,57,0.00,,,0.00,meteohub,2013-06-29 14:41:00,
2013-06-29 09:43:00,84.0,67.1,-100.00,NE,45,0.0,0.0,57,0.00,,,0.00,meteohub,2013-06-29 14:43:00,
2013-06-29 09:45:00,84.0,67.1,-100.00,NE,45,0.0,0.0,57,0.00,,,0.00,meteohub,2013-06-29 14:45:00,
2013-06-29 09:47:00,84.7,67.8,-100.00,NNE,23,0.0,0.0,57,0.00,,,0.00,meteohub,2013-06-29 14:47:00,
2013-06-29 09:49:00,85.3,67.8,-100.00,NE,45,0.0,0.0,56,0.00,,,0.00,meteohub,2013-06-29 14:49:00,
2013-06-29 09:51:00,85.5,67.5,-100.00,NE,45,0.0,0.0,55,0.00,,,0.00,meteohub,2013-06-29 14:51:00,
2013-06-29 09:57:00,85.8,67.8,-100.00,West,270,0.0,0.0,55,0.00,,,0.00,meteohub,2013-06-29 14:57:00,
2013-06-29 09:59:00,86.2,67.6,-100.00,NNW,338,0.0,0.0,54,0.00,,,0.00,meteohub,2013-06-29 14:59:00,
2013-06-29 10:01:00,86.5,67.5,-100.00,ESE,113,0.0,0.0,53,0.00,,,0.00,meteohub,2013-06-29 15:01:00,
2013-06-29 10:02:00,86.5,67.5,-100.00,ESE,113,0.0,0.0,53,0.00,,,0.00,meteohub,2013-06-29 15:02:00,
2013-06-29 10:03:00,86.7,66.9,-100.00,WNW,293,0.0,0.0,52,0.00,,,0.00,meteohub,2013-06-29 15:03:00,
2013-06-29 10:07:00,86.9,66.6,-100.00,NE,45,0.0,0.0,51,0.00,,,0.00,meteohub,2013-06-29 15:07:00,
2013-06-29 10:09:00,87.1,66.2,-100.00,SW,225,0.0,0.0,50,0.00,,,0.00,meteohub,2013-06-29 15:09:00,
2013-06-29 10:11:00,87.4,65.3,-100.00,WNW,293,0.0,0.0,48,0.00,,,0.00,meteohub,2013-06-29 15:11:00,
2013-06-29 10:13:00,87.4,65.3,-100.00,WNW,293,0.0,0.0,48,0.00,,,0.00,meteohub,2013-06-29 15:13:00,
2013-06-29 10:17:00,88.3,66.2,-100.00,West,270,0.0,0.0,48,0.00,,,0.00,meteohub,2013-06-29 15:17:00,
2013-06-29 10:23:00,88.9,66.0,-100.00,WSW,248,0.0,0.0,47,0.00,,,0.00,meteohub,2013-06-29 15:23:00,
2013-06-29 10:25:00,88.9,65.5,-100.00,NW,315,0.0,0.0,46,0.00,,,0.00,meteohub,2013-06-29 15:25:00,
2013-06-29 10:27:00,88.9,65.5,-100.00,NW,315,0.0,0.0,46,0.00,,,0.00,meteohub,2013-06-29 15:27:00,
2013-06-29 10:29:00,89.4,65.3,-100.00,ENE,68,0.0,0.0,45,0.00,,,0.00,meteohub,2013-06-29 15:29:00,
2013-06-29 10:31:00,89.4,65.3,-100.00,NE,45,0.0,0.0,45,0.00,,,0.00,meteohub,2013-06-29 15:31:00,
2013-06-29 10:32:00,89.4,65.3,-100.00,NE,45,0.0,0.0,45,0.00,,,0.00,meteohub,2013-06-29 15:32:00,
2013-06-29 10:33:00,89.6,65.5,-100.00,WNW,293,1.0,0.0,45,0.00,,,0.00,meteohub,2013-06-29 15:33:00,
2013-06-29 10:37:00,90.1,65.3,-100.00,WNW,293,0.0,0.0,44,0.00,,,0.00,meteohub,2013-06-29 15:37:00,
2013-06-29 10:42:00,90.1,65.3,-100.00,SE,135,0.0,2.0,44,0.00,,,0.00,meteohub,2013-06-29 15:42:00,
2013-06-29 10:44:00,90.3,65.5,-100.00,South,180,2.0,2.0,44,0.00,,,0.00,meteohub,2013-06-29 15:44:00,
2013-06-29 10:46:00,90.7,65.1,-100.00,NE,45,0.0,2.0,43,0.00,,,0.00,meteohub,2013-06-29 15:46:00,
2013-06-29 10:48:00,91.0,65.5,-100.00,North,0,0.0,2.0,43,0.00,,,0.00,meteohub,2013-06-29 15:48:00,
2013-06-29 10:50:00,91.2,65.7,-100.00,NE,45,0.0,2.0,43,0.00,,,0.00,meteohub,2013-06-29 15:50:00,
2013-06-29 10:52:00,91.6,65.8,-100.00,NE,45,0.0,2.0,43,0.00,,,0.00,meteohub,2013-06-29 15:52:00,
2013-06-29 10:56:00,91.8,65.5,-100.00,NNW,338,0.0,2.0,42,0.00,,,0.00,meteohub,2013-06-29 15:56:00,
2013-06-29 10:58:00,91.8,64.8,-100.00,West,270,0.0,2.0,41,0.00,,,0.00,meteohub,2013-06-29 15:58:00,
2013-06-29 11:02:00,92.1,64.9,-100.00,West,270,1.0,1.0,41,0.00,,,0.00,meteohub,2013-06-29 16:02:00,
2013-06-29 11:04:00,92.3,65.1,-100.00,WSW,248,0.0,1.0,41,0.00,,,0.00,meteohub,2013-06-29 16:04:00,
2013-06-29 11:06:00,92.5,65.3,-100.00,WSW,248,0.0,1.0,41,0.00,,,0.00,meteohub,2013-06-29 16:06:00,
2013-06-29 11:08:00,92.7,64.8,-100.00,NW,315,0.0,1.0,40,0.00,,,0.00,meteohub,2013-06-29 16:08:00,
2013-06-29 11:10:00,92.7,64.8,-100.00,NW,315,0.0,1.0,40,0.00,,,0.00,meteohub,2013-06-29 16:10:00,
2013-06-29 11:14:00,93.0,65.1,-100.00,NW,315,1.0,1.0,40,0.00,,,0.00,meteohub,2013-06-29 16:14:00,
2013-06-29 11:16:00,93.0,65.1,-100.00,NNW,338,0.0,1.0,40,0.00,,,0.00,meteohub,2013-06-29 16:16:00,
2013-06-29 11:17:00,93.2,64.6,-100.00,SSW,203,0.0,1.0,39,0.00,,,0.00,meteohub,2013-06-29 16:17:00,
2013-06-29 11:20:00,93.4,64.8,-100.00,SE,135,0.0,1.0,39,0.00,,,0.00,meteohub,2013-06-29 16:20:00,
2013-06-29 11:22:00,93.7,65.1,-100.00,SE,135,0.0,1.0,39,0.00,,,0.00,meteohub,2013-06-29 16:22:00,
2013-06-29 11:24:00,93.7,65.1,-100.00,SE,135,0.0,1.0,39,0.00,,,0.00,meteohub,2013-06-29 16:24:00,
2013-06-29 11:26:00,93.7,65.1,-100.00,SE,135,0.0,1.0,39,0.00,,,0.00,meteohub,2013-06-29 16:26:00,
2013-06-29 11:28:00,94.3,65.5,-100.00,NE,45,0.0,1.0,39,0.00,,,0.00,meteohub,2013-06-29 16:28:00,
2013-06-29 11:30:00,94.3,65.5,-100.00,North,0,2.0,2.0,39,0.00,,,0.00,meteohub,2013-06-29 16:30:00,
2013-06-29 11:32:00,94.6,65.8,-100.00,ENE,68,0.0,2.0,39,0.00,,,0.00,meteohub,2013-06-29 16:32:00,
2013-06-29 11:34:00,94.8,66.0,-100.00,NNE,23,2.0,2.0,39,0.00,,,0.00,meteohub,2013-06-29 16:34:00,
2013-06-29 11:38:00,94.8,66.0,-100.00,NNE,23,2.0,2.0,39,0.00,,,0.00,meteohub,2013-06-29 16:38:00,
2013-06-29 11:40:00,94.8,65.3,-100.00,NE,45,0.0,2.0,38,0.00,,,0.00,meteohub,2013-06-29 16:40:00,
2013-06-29 11:42:00,95.2,65.5,-100.00,ENE,68,0.0,2.0,38,0.00,,,0.00,meteohub,2013-06-29 16:42:00,
2013-06-29 11:44:00,95.4,65.7,-100.00,NNE,23,0.0,2.0,38,0.00,,,0.00,meteohub,2013-06-29 16:44:00,
2013-06-29 11:48:00,95.4,65.7,-100.00,NNE,23,0.0,2.0,38,0.00,,,0.00,meteohub,2013-06-29 16:48:00,
2013-06-29 11:50:00,95.4,65.7,-100.00,NNE,23,0.0,2.0,38,0.00,,,0.00,meteohub,2013-06-29 16:50:00,
2013-06-29 11:52:00,95.5,65.8,-100.00,NNE,23,0.0,2.0,38,0.00,,,0.00,meteohub,2013-06-29 16:52:00,
2013-06-29 11:54:00,95.5,65.8,-100.00,NNE,23,0.0,2.0,38,0.00,,,0.00,meteohub,2013-06-29 16:54:00,
2013-06-29 11:56:00,95.5,65.8,-100.00,NNE,23,0.0,0.0,38,0.00,,,0.00,meteohub,2013-06-29 16:56:00,
2013-06-29 11:58:00,95.7,66.0,-100.00,ENE,68,1.0,0.0,38,0.00,,,0.00,meteohub,2013-06-29 16:58:00,
2013-06-29 12:02:00,95.7,66.0,-100.00,ENE,68,1.0,1.0,38,0.00,,,0.00,meteohub,2013-06-29 17:02:00,
2013-06-29 12:06:00,95.7,66.0,-100.00,ENE,68,1.0,1.0,38,0.00,,,0.00,meteohub,2013-06-29 17:06:00,
2013-06-29 12:10:00,96.4,65.8,-100.00,NE,45,0.0,1.0,37,0.00,,,0.00,meteohub,2013-06-29 17:10:00,
2013-06-29 12:12:00,96.4,65.1,-100.00,NE,45,5.0,5.0,36,0.00,,,0.00,meteohub,2013-06-29 17:12:00,
2013-06-29 12:14:00,96.4,65.1,-100.00,NE,45,5.0,5.0,36,0.00,,,0.00,meteohub,2013-06-29 17:14:00,
2013-06-29 12:18:00,96.6,66.0,-100.00,North,0,0.0,5.0,37,0.00,,,0.00,meteohub,2013-06-29 17:18:00,
2013-06-29 12:20:00,96.8,66.2,-100.00,North,0,4.0,5.0,37,0.00,,,0.00,meteohub,2013-06-29 17:20:00,
2013-06-29 12:24:00,97.0,65.7,-100.00,NE,45,0.0,5.0,36,0.00,,,0.00,meteohub,2013-06-29 17:24:00,
2013-06-29 12:26:00,97.0,65.7,-100.00,WNW,293,1.0,5.0,36,0.00,,,0.00,meteohub,2013-06-29 17:26:00,
2013-06-29 12:28:00,97.0,65.7,-100.00,NE,45,0.0,5.0,36,0.00,,,0.00,meteohub,2013-06-29 17:28:00,
2013-06-29 12:30:00,97.3,64.2,-100.00,NE,45,0.0,5.0,34,0.00,,,0.00,meteohub,2013-06-29 17:30:00,
2013-06-29 12:32:00,97.3,64.2,-100.00,NW,315,0.0,5.0,34,0.00,,,0.00,meteohub,2013-06-29 17:32:00,
2013-06-29 12:38:00,97.5,65.3,-100.00,North,0,0.0,4.0,35,0.00,,,0.00,meteohub,2013-06-29 17:38:00,
2013-06-29 12:40:00,97.5,64.4,-100.00,NW,315,2.0,2.0,34,0.00,,,0.00,meteohub,2013-06-29 17:40:00,
2013-06-29 12:42:00,97.9,64.8,-100.00,NNE,23,0.0,2.0,34,0.00,,,0.00,meteohub,2013-06-29 17:42:00,
2013-06-29 12:44:00,97.9,64.8,-100.00,North,0,1.0,2.0,34,0.00,,,0.00,meteohub,2013-06-29 17:44:00,
2013-06-29 12:46:00,98.2,65.1,-100.00,NNE,23,3.0,3.0,34,0.00,,,0.00,meteohub,2013-06-29 17:46:00,
2013-06-29 12:50:00,98.4,64.4,-100.00,NE,45,0.0,4.0,33,0.00,,,0.00,meteohub,2013-06-29 17:50:00,
2013-06-29 12:52:00,98.4,64.4,-100.00,NE,45,0.0,4.0,33,0.00,,,0.00,meteohub,2013-06-29 17:52:00,
2013-06-29 12:54:00,98.4,64.4,-100.00,NE,45,0.0,4.0,33,0.00,,,0.00,meteohub,2013-06-29 17:54:00,
2013-06-29 12:56:00,98.4,64.4,-100.00,NE,45,0.0,4.0,33,0.00,,,0.00,meteohub,2013-06-29 17:56:00,
2013-06-29 12:58:00,98.4,64.4,-100.00,WNW,293,0.0,4.0,33,0.00,,,0.00,meteohub,2013-06-29 17:58:00,
2013-06-29 13:02:00,98.8,64.6,-100.00,ESE,113,1.0,4.0,33,0.00,,,0.00,meteohub,2013-06-29 18:02:00,
2013-06-29 13:08:00,99.0,63.9,-100.00,ENE,68,0.0,1.0,32,0.00,,,0.00,meteohub,2013-06-29 18:08:00,
2013-06-29 13:10:00,99.1,64.0,-100.00,NNE,23,4.0,4.0,32,0.00,,,0.00,meteohub,2013-06-29 18:10:00,
2013-06-29 13:14:00,99.1,64.0,-100.00,NNE,23,1.0,2.0,32,0.00,,,0.00,meteohub,2013-06-29 18:14:00,
2013-06-29 13:17:00,99.1,64.0,-100.00,North,0,0.0,4.0,32,0.00,,,0.00,meteohub,2013-06-29 18:17:00,
2013-06-29 13:20:00,99.1,64.0,-100.00,NNE,23,4.0,4.0,32,0.00,,,0.00,meteohub,2013-06-29 18:20:00,
2013-06-29 13:22:00,99.1,64.0,-100.00,NNE,23,4.0,4.0,32,0.00,,,0.00,meteohub,2013-06-29 18:22:00,
2013-06-29 13:24:00,99.1,64.0,-100.00,NNE,23,4.0,4.0,32,0.00,,,0.00,meteohub,2013-06-29 18:24:00,
2013-06-29 13:26:00,99.5,64.4,-100.00,NE,45,0.0,4.0,32,0.00,,,0.00,meteohub,2013-06-29 18:26:00,
2013-06-29 13:29:00,99.7,65.5,-100.00,NNE,23,3.0,4.0,33,0.00,,,0.00,meteohub,2013-06-29 18:29:00,
2013-06-29 13:31:00,99.7,65.5,-100.00,NNE,23,3.0,4.0,33,0.00,,,0.00,meteohub,2013-06-29 18:31:00,
2013-06-29 13:32:00,100.0,65.8,-100.00,NE,45,0.0,4.0,33,0.00,,,0.00,meteohub,2013-06-29 18:32:00,
2013-06-29 13:37:00,100.2,65.8,-100.00,ENE,68,0.0,4.0,33,0.00,,,0.00,meteohub,2013-06-29 18:37:00,
2013-06-29 13:39:00,100.2,65.8,-100.00,ENE,68,0.0,4.0,33,0.00,,,0.00,meteohub,2013-06-29 18:39:00,
2013-06-29 13:43:00,100.9,64.8,-100.00,NNE,23,4.0,4.0,31,0.00,,,0.00,meteohub,2013-06-29 18:43:00,
2013-06-29 13:45:00,100.9,64.8,-100.00,ENE,68,2.0,4.0,31,0.00,,,0.00,meteohub,2013-06-29 18:45:00,
2013-06-29 13:49:00,100.9,64.8,-100.00,NE,45,1.0,4.0,31,0.00,,,0.00,meteohub,2013-06-29 18:49:00,
2013-06-29 13:53:00,100.9,63.9,-100.00,South,180,2.0,4.0,30,0.00,,,0.00,meteohub,2013-06-29 18:53:00,
2013-06-29 13:57:00,101.1,64.9,-100.00,North,0,4.0,4.0,31,0.00,,,0.00,meteohub,2013-06-29 18:57:00,
2013-06-29 14:02:00,101.3,65.1,-100.00,NNE,23,1.0,4.0,31,0.00,,,0.00,meteohub,2013-06-29 19:02:00,
2013-06-29 14:03:00,101.3,65.1,-100.00,NNE,23,1.0,4.0,31,0.00,,,0.00,meteohub,2013-06-29 19:03:00,
2013-06-29 14:05:00,101.3,65.1,-100.00,ENE,68,0.0,4.0,31,0.00,,,0.00,meteohub,2013-06-29 19:05:00,
2013-06-29 14:07:00,101.5,65.1,-100.00,NNE,23,1.0,4.0,31,0.00,,,0.00,meteohub,2013-06-29 19:07:00,
2013-06-29 14:09:00,101.5,65.1,-100.00,NNE,23,1.0,4.0,31,0.00,,,0.00,meteohub,2013-06-29 19:09:00,
2013-06-29 14:11:00,101.8,64.6,-100.00,ESE,113,0.0,4.0,30,0.00,,,0.00,meteohub,2013-06-29 19:11:00,
2013-06-29 14:13:00,101.8,63.7,-100.00,South,180,1.0,4.0,29,0.00,,,0.00,meteohub,2013-06-29 19:13:00,
2013-06-29 14:15:00,101.8,63.7,-100.00,SSE,158,0.0,4.0,29,0.00,,,0.00,meteohub,2013-06-29 19:15:00,
2013-06-29 14:17:00,102.0,63.7,-100.00,NE,45,2.0,4.0,29,0.00,,,0.00,meteohub,2013-06-29 19:17:00,
2013-06-29 14:19:00,102.0,63.7,-100.00,SE,135,2.0,4.0,29,0.00,,,0.00,meteohub,2013-06-29 19:19:00,
2013-06-29 14:23:00,102.6,63.1,-100.00,South,180,1.0,2.0,28,0.00,,,0.00,meteohub,2013-06-29 19:23:00,
2013-06-29 14:25:00,102.7,63.3,-100.00,SSE,158,2.0,2.0,28,0.00,,,0.00,meteohub,2013-06-29 19:25:00,
2013-06-29 14:29:00,102.6,63.1,-100.00,ESE,113,0.0,2.0,28,0.00,,,0.00,meteohub,2013-06-29 19:29:00,
2013-06-29 14:31:00,102.6,63.1,-100.00,ESE,113,0.0,2.0,28,0.00,,,0.00,meteohub,2013-06-29 19:31:00,
2013-06-29 14:33:00,102.6,63.1,-100.00,ESE,113,0.0,2.0,28,0.00,,,0.00,meteohub,2013-06-29 19:33:00,
2013-06-29 14:37:00,102.4,63.1,-100.00,ESE,113,0.0,2.0,28,0.00,,,0.00,meteohub,2013-06-29 19:37:00,
2013-06-29 14:41:00,102.6,63.1,-100.00,NE,45,1.0,2.0,28,0.00,,,0.00,meteohub,2013-06-29 19:41:00,
2013-06-29 14:43:00,102.6,63.1,-100.00,NNE,23,4.0,4.0,28,0.00,,,0.00,meteohub,2013-06-29 19:43:00,
2013-06-29 14:47:00,102.4,61.0,-100.00,North,0,3.0,4.0,26,0.00,,,0.00,meteohub,2013-06-29 19:47:00,
2013-06-29 14:51:00,102.0,61.7,-100.00,NNE,23,2.0,4.0,27,0.00,,,0.00,meteohub,2013-06-29 19:51:00,
2013-06-29 14:53:00,102.0,62.8,-100.00,NW,315,0.0,4.0,28,0.00,,,0.00,meteohub,2013-06-29 19:53:00,
2013-06-29 14:55:00,102.2,63.0,-100.00,West,270,1.0,4.0,28,0.00,,,0.00,meteohub,2013-06-29 19:55:00,
2013-06-29 14:57:00,102.6,63.1,-100.00,SSE,158,0.0,4.0,28,0.00,,,0.00,meteohub,2013-06-29 19:57:00,
2013-06-29 14:59:00,102.7,61.3,-100.00,ESE,113,2.0,4.0,26,0.00,,,0.00,meteohub,2013-06-29 19:59:00,
2013-06-29 15:02:00,102.9,61.3,-100.00,North,0,2.0,3.0,26,0.00,,,0.00,meteohub,2013-06-29 20:02:00,
2013-06-29 15:03:00,102.9,60.3,-100.00,ENE,68,0.0,3.0,25,0.00,,,0.00,meteohub,2013-06-29 20:03:00,
2013-06-29 15:07:00,103.3,60.6,-100.00,NE,45,0.0,2.0,25,0.00,,,0.00,meteohub,2013-06-29 20:07:00,
2013-06-29 15:09:00,103.3,60.6,-100.00,NE,45,0.0,2.0,25,0.00,,,0.00,meteohub,2013-06-29 20:09:00,
2013-06-29 15:13:00,103.3,60.6,-100.00,SE,135,2.0,3.0,25,0.00,,,0.00,meteohub,2013-06-29 20:13:00,
2013-06-29 15:15:00,103.1,60.4,-100.00,NE,45,0.0,3.0,25,0.00,,,0.00,meteohub,2013-06-29 20:15:00,
2013-06-29 15:17:00,102.9,60.3,-100.00,East,90,2.0,3.0,25,0.00,,,0.00,meteohub,2013-06-29 20:17:00,
2013-06-29 15:21:00,102.9,60.3,-100.00,SW,225,2.0,3.0,25,0.00,,,0.00,meteohub,2013-06-29 20:21:00,
2013-06-29 15:23:00,102.9,60.3,-100.00,South,180,2.0,3.0,25,0.00,,,0.00,meteohub,2013-06-29 20:23:00,
2013-06-29 15:25:00,102.9,60.3,-100.00,South,180,2.0,2.0,25,0.00,,,0.00,meteohub,2013-06-29 20:25:00,
2013-06-29 15:27:00,102.9,60.3,-100.00,South,180,2.0,2.0,25,0.00,,,0.00,meteohub,2013-06-29 20:27:00,
2013-06-29 15:31:00,103.3,60.6,-100.00,ESE,113,0.0,2.0,25,0.00,,,0.00,meteohub,2013-06-29 20:31:00,
2013-06-29 15:35:00,103.3,60.6,-100.00,NE,45,0.0,3.0,25,0.00,,,0.00,meteohub,2013-06-29 20:35:00,
2013-06-29 15:37:00,103.5,60.8,-100.00,NE,45,0.0,3.0,25,0.00,,,0.00,meteohub,2013-06-29 20:37:00,
2013-06-29 15:39:00,103.5,60.8,-100.00,NE,45,0.0,3.0,25,0.00,,,0.00,meteohub,2013-06-29 20:39:00,
2013-06-29 15:45:00,103.6,61.0,-100.00,NE,45,1.0,3.0,25,0.00,,,0.00,meteohub,2013-06-29 20:45:00,
2013-06-29 15:47:00,103.6,61.0,-100.00,SSE,158,2.0,3.0,25,0.00,,,0.00,meteohub,2013-06-29 20:47:00,
2013-06-29 15:51:00,103.6,61.0,-100.00,NE,45,1.0,3.0,25,0.00,,,0.00,meteohub,2013-06-29 20:51:00,
2013-06-29 15:53:00,103.6,61.0,-100.00,East,90,3.0,3.0,25,0.00,,,0.00,meteohub,2013-06-29 20:53:00,
2013-06-29 15:57:00,103.8,61.0,-100.00,ESE,113,1.0,3.0,25,0.00,,,0.00,meteohub,2013-06-29 20:57:00,
2013-06-29 15:59:00,103.6,61.0,-100.00,ESE,113,1.0,3.0,25,0.00,,,0.00,meteohub,2013-06-29 20:59:00,
2013-06-29 16:01:00,103.6,61.0,-100.00,West,270,1.0,3.0,25,0.00,,,0.00,meteohub,2013-06-29 21:01:00,
2013-06-29 16:03:00,103.8,61.0,-100.00,NE,45,4.0,4.0,25,0.00,,,0.00,meteohub,2013-06-29 21:03:00,
2013-06-29 16:05:00,103.8,61.0,-100.00,West,270,4.0,4.0,25,0.00,,,0.00,meteohub,2013-06-29 21:05:00,
2013-06-29 16:09:00,103.6,61.0,-100.00,NE,45,2.0,4.0,25,0.00,,,0.00,meteohub,2013-06-29 21:09:00,
2013-06-29 16:11:00,103.3,61.7,-100.00,West,270,0.0,4.0,26,0.00,,,0.00,meteohub,2013-06-29 21:11:00,
2013-06-29 16:15:00,102.9,61.3,-100.00,WNW,293,0.0,4.0,26,0.00,,,0.00,meteohub,2013-06-29 21:15:00,
2013-06-29 16:17:00,102.9,61.3,-100.00,WNW,293,0.0,4.0,26,0.00,,,0.00,meteohub,2013-06-29 21:17:00,
2013-06-29 16:22:00,102.9,61.3,-100.00,NNE,23,0.0,4.0,26,0.00,,,0.00,meteohub,2013-06-29 21:22:00,
2013-06-29 16:24:00,102.9,61.3,-100.00,North,0,0.0,4.0,26,0.00,,,0.00,meteohub,2013-06-29 21:24:00,
2013-06-29 16:26:00,103.1,61.5,-100.00,East,90,0.0,2.0,26,0.00,,,0.00,meteohub,2013-06-29 21:26:00,
2013-06-29 16:28:00,103.3,61.7,-100.00,South,180,0.0,2.0,26,0.00,,,0.00,meteohub,2013-06-29 21:28:00,
2013-06-29 16:32:00,103.3,61.7,-100.00,NNE,23,4.0,4.0,26,0.00,,,0.00,meteohub,2013-06-29 21:32:00,
2013-06-29 16:36:00,103.6,62.1,-100.00,WSW,248,2.0,4.0,26,0.00,,,0.00,meteohub,2013-06-29 21:36:00,
2013-06-29 16:38:00,103.6,62.1,-100.00,NE,45,3.0,4.0,26,0.00,,,0.00,meteohub,2013-06-29 21:38:00,
2013-06-29 16:42:00,103.6,63.1,-100.00,North,0,0.0,4.0,27,0.00,,,0.00,meteohub,2013-06-29 21:42:00,
2013-06-29 16:44:00,103.6,63.1,-100.00,North,0,0.0,4.0,27,0.00,,,0.00,meteohub,2013-06-29 21:44:00,
2013-06-29 16:46:00,103.6,63.1,-100.00,North,0,0.0,4.0,27,0.00,,,0.00,meteohub,2013-06-29 21:46:00,
2013-06-29 16:48:00,103.6,61.0,-100.00,NE,45,2.0,4.0,25,0.00,,,0.00,meteohub,2013-06-29 21:48:00,
2013-06-29 16:50:00,103.6,61.0,-100.00,NE,45,2.0,4.0,25,0.00,,,0.00,meteohub,2013-06-29 21:50:00,
2013-06-29 16:52:00,103.1,60.4,-100.00,NNW,338,0.0,3.0,25,0.00,,,0.00,meteohub,2013-06-29 21:52:00,
2013-06-29 16:56:00,102.7,61.3,-100.00,NNE,23,0.0,2.0,26,0.00,,,0.00,meteohub,2013-06-29 21:56:00,
2013-06-29 16:58:00,102.7,61.3,-100.00,ENE,68,1.0,2.0,26,0.00,,,0.00,meteohub,2013-06-29 21:58:00,
2013-06-29 17:02:00,102.4,61.0,-100.00,NNE,23,1.0,2.0,26,0.00,,,0.00,meteohub,2013-06-29 22:02:00,
2013-06-29 17:06:00,102.0,60.6,-100.00,NW,315,0.0,2.0,26,0.00,,,0.00,meteohub,2013-06-29 22:06:00,
2013-06-29 17:08:00,101.8,60.4,-100.00,NE,45,0.0,2.0,26,0.00,,,0.00,meteohub,2013-06-29 22:08:00,
2013-06-29 17:10:00,101.7,61.3,-100.00,NE,45,0.0,2.0,27,0.00,,,0.00,meteohub,2013-06-29 22:10:00,
2013-06-29 17:12:00,101.7,61.3,-100.00,NE,45,0.0,2.0,27,0.00,,,0.00,meteohub,2013-06-29 22:12:00,
2013-06-29 17:16:00,101.1,62.1,-100.00,NW,315,0.0,2.0,28,0.00,,,0.00,meteohub,2013-06-29 22:16:00,
2013-06-29 17:18:00,101.1,62.1,-100.00,NW,315,0.0,2.0,28,0.00,,,0.00,meteohub,2013-06-29 22:18:00,
2013-06-29 17:20:00,101.1,62.1,-100.00,NW,315,0.0,2.0,28,0.00,,,0.00,meteohub,2013-06-29 22:20:00,
2013-06-29 17:22:00,101.1,61.0,-100.00,SE,135,1.0,0.0,27,0.00,,,0.00,meteohub,2013-06-29 22:22:00,
2013-06-29 17:26:00,101.1,59.9,-100.00,SE,135,0.0,2.0,26,0.00,,,0.00,meteohub,2013-06-29 22:26:00,
2013-06-29 17:28:00,101.3,60.1,-100.00,SE,135,0.0,2.0,26,0.00,,,0.00,meteohub,2013-06-29 22:28:00,
2013-06-29 17:32:00,101.3,60.1,-100.00,East,90,2.0,2.0,26,0.00,,,0.00,meteohub,2013-06-29 22:32:00,
2013-06-29 17:34:00,101.3,60.1,-100.00,East,90,2.0,2.0,26,0.00,,,0.00,meteohub,2013-06-29 22:34:00,
2013-06-29 17:36:00,101.3,60.1,-100.00,East,90,2.0,2.0,26,0.00,,,0.00,meteohub,2013-06-29 22:36:00,
2013-06-29 17:38:00,101.1,59.9,-100.00,NE,45,0.0,2.0,26,0.00,,,0.00,meteohub,2013-06-29 22:38:00,
2013-06-29 17:42:00,101.1,59.9,-100.00,NE,45,0.0,2.0,26,0.00,,,0.00,meteohub,2013-06-29 22:42:00,
2013-06-29 17:44:00,101.1,59.9,-100.00,South,180,0.0,2.0,26,0.00,,,0.00,meteohub,2013-06-29 22:44:00,
2013-06-29 17:46:00,100.9,59.7,-100.00,ESE,113,0.0,2.0,26,0.00,,,0.00,meteohub,2013-06-29 22:46:00,
2013-06-29 17:48:00,100.9,59.7,-100.00,NE,45,1.0,2.0,26,0.00,,,0.00,meteohub,2013-06-29 22:48:00,
2013-06-29 17:50:00,100.8,59.5,-100.00,NE,45,2.0,2.0,26,0.00,,,0.00,meteohub,2013-06-29 22:50:00,
2013-06-29 17:54:00,100.2,59.2,-100.00,North,0,0.0,2.0,26,0.00,,,0.00,meteohub,2013-06-29 22:54:00,
2013-06-29 17:56:00,100.2,61.2,-100.00,SW,225,0.0,2.0,28,0.00,,,0.00,meteohub,2013-06-29 22:56:00,
2013-06-29 17:58:00,100.2,61.2,-100.00,SW,225,0.0,2.0,28,0.00,,,0.00,meteohub,2013-06-29 22:58:00,
2013-06-29 18:00:00,100.0,61.2,-100.00,NE,45,0.0,2.0,28,0.00,,,0.00,meteohub,2013-06-29 23:00:00,
2013-06-29 18:02:00,100.0,61.2,-100.00,NE,45,0.0,2.0,28,0.00,,,0.00,meteohub,2013-06-29 23:02:00,
2013-06-29 18:04:00,100.0,61.2,-100.00,ENE,68,0.0,2.0,28,0.00,,,0.00,meteohub,2013-06-29 23:04:00,
2013-06-29 18:06:00,100.0,61.2,-100.00,ESE,113,1.0,2.0,28,0.00,,,0.00,meteohub,2013-06-29 23:06:00,
2013-06-29 18:10:00,99.9,59.9,-100.00,NNE,23,0.0,1.0,27,0.00,,,0.00,meteohub,2013-06-29 23:10:00,
2013-06-29 18:14:00,99.7,60.8,-100.00,NNE,23,0.0,1.0,28,0.00,,,0.00,meteohub,2013-06-29 23:14:00,
2013-06-29 18:16:00,99.5,60.6,-100.00,NE,45,0.0,1.0,28,0.00,,,0.00,meteohub,2013-06-29 23:16:00,
2013-06-29 18:17:00,99.5,60.6,-100.00,NE,45,0.0,1.0,28,0.00,,,0.00,meteohub,2013-06-29 23:17:00,
2013-06-29 18:22:00,99.5,60.6,-100.00,NNE,23,0.0,1.0,28,0.00,,,0.00,meteohub,2013-06-29 23:22:00,
2013-06-29 18:24:00,99.5,60.6,-100.00,North,0,0.0,1.0,28,0.00,,,0.00,meteohub,2013-06-29 23:24:00,
2013-06-29 18:26:00,99.5,60.6,-100.00,NE,45,0.0,0.0,28,0.00,,,0.00,meteohub,2013-06-29 23:26:00,
2013-06-29 18:30:00,99.5,60.6,-100.00,NE,45,0.0,0.0,28,0.00,,,0.00,meteohub,2013-06-29 23:30:00,
2013-06-29 18:32:00,99.5,60.6,-100.00,NE,45,0.0,0.0,28,0.00,,,0.00,meteohub,2013-06-29 23:32:00,
2013-06-29 18:34:00,99.5,60.6,-100.00,ENE,68,1.0,0.0,28,0.00,,,0.00,meteohub,2013-06-29 23:34:00,
2013-06-29 18:36:00,99.5,60.6,-100.00,South,180,0.0,1.0,28,0.00,,,0.00,meteohub,2013-06-29 23:36:00,
2013-06-29 18:38:00,99.5,60.6,-100.00,WNW,293,0.0,1.0,28,0.00,,,0.00,meteohub,2013-06-29 23:38:00,
2013-06-29 18:42:00,99.5,60.6,-100.00,NE,45,1.0,1.0,28,0.00,,,0.00,meteohub,2013-06-29 23:42:00,
2013-06-29 18:44:00,99.5,60.6,-100.00,NE,45,1.0,1.0,28,0.00,,,0.00,meteohub,2013-06-29 23:44:00,
2013-06-29 18:46:00,99.5,61.5,-100.00,East,90,1.0,1.0,29,0.00,,,0.00,meteohub,2013-06-29 23:46:00,
2013-06-29 18:47:00,99.5,61.5,-100.00,East,90,1.0,1.0,29,0.00,,,0.00,meteohub,2013-06-29 23:47:00,
2013-06-29 18:48:00,99.3,61.5,-100.00,NE,45,1.0,1.0,29,0.00,,,0.00,meteohub,2013-06-29 23:48:00,
2013-06-29 18:52:00,99.1,61.3,-100.00,East,90,3.0,3.0,29,0.00,,,0.00,meteohub,2013-06-29 23:52:00,
2013-06-29 18:54:00,99.0,61.2,-100.00,SSE,158,0.0,1.0,29,0.00,,,0.00,meteohub,2013-06-29 23:54:00,
2013-06-29 19:01:00,98.8,61.0,-100.00,WNW,293,0.0,3.0,29,0.00,,,0.00,meteohub,2013-06-30 00:01:00,
2013-06-29 19:02:00,98.8,61.0,-100.00,WNW,293,0.0,3.0,29,0.00,,,0.00,meteohub,2013-06-30 00:02:00,
2013-06-29 19:05:00,98.4,60.6,-100.00,WNW,293,0.0,3.0,29,0.00,,,0.00,meteohub,2013-06-30 00:05:00,
2013-06-29 19:07:00,98.4,60.6,-100.00,SSW,203,0.0,3.0,29,0.00,,,0.00,meteohub,2013-06-30 00:07:00,
2013-06-29 19:09:00,98.4,60.6,-100.00,ESE,113,0.0,3.0,29,0.00,,,0.00,meteohub,2013-06-30 00:09:00,
2013-06-29 19:13:00,98.2,60.4,-100.00,East,90,0.0,1.0,29,0.00,,,0.00,meteohub,2013-06-30 00:13:00,
2013-06-29 19:17:00,97.9,60.3,-100.00,WNW,293,0.0,1.0,29,0.00,,,0.00,meteohub,2013-06-30 00:17:00,
2013-06-29 19:21:00,97.5,59.9,-100.00,ENE,68,0.0,0.0,29,0.00,,,0.00,meteohub,2013-06-30 00:21:00,
2013-06-29 19:23:00,97.5,59.9,-100.00,ENE,68,0.0,0.0,29,0.00,,,0.00,meteohub,2013-06-30 00:23:00,
2013-06-29 19:25:00,97.5,59.9,-100.00,SE,135,0.0,0.0,29,0.00,,,0.00,meteohub,2013-06-30 00:25:00,
2013-06-29 19:27:00,97.3,60.8,-100.00,East,90,0.0,0.0,30,0.00,,,0.00,meteohub,2013-06-30 00:27:00,
2013-06-29 19:29:00,97.3,59.7,-100.00,SE,135,4.0,0.0,29,0.00,,,0.00,meteohub,2013-06-30 00:29:00,
2013-06-29 19:31:00,97.2,59.5,-100.00,SW,225,0.0,0.0,29,0.00,,,0.00,meteohub,2013-06-30 00:31:00,
2013-06-29 19:33:00,97.2,59.5,-100.00,East,90,2.0,0.0,29,0.00,,,0.00,meteohub,2013-06-30 00:33:00,
2013-06-29 19:35:00,97.2,59.5,-100.00,ESE,113,4.0,0.0,29,0.00,,,0.00,meteohub,2013-06-30 00:35:00,
2013-06-29 19:37:00,97.2,59.5,-100.00,ESE,113,4.0,4.0,29,0.00,,,0.00,meteohub,2013-06-30 00:37:00,
2013-06-29 19:41:00,97.0,59.4,-100.00,ENE,68,0.0,4.0,29,0.00,,,0.00,meteohub,2013-06-30 00:41:00,
2013-06-29 19:43:00,97.0,59.4,-100.00,SE,135,1.0,4.0,29,0.00,,,0.00,meteohub,2013-06-30 00:43:00,
2013-06-29 19:47:00,96.6,59.2,-100.00,ESE,113,2.0,4.0,29,0.00,,,0.00,meteohub,2013-06-30 00:47:00,
2013-06-29 19:49:00,96.6,59.2,-100.00,ESE,113,3.0,4.0,29,0.00,,,0.00,meteohub,2013-06-30 00:49:00,
2013-06-29 19:51:00,96.6,59.2,-100.00,East,90,0.0,4.0,29,0.00,,,0.00,meteohub,2013-06-30 00:51:00,
2013-06-29 19:53:00,96.6,59.2,-100.00,East,90,0.0,4.0,29,0.00,,,0.00,meteohub,2013-06-30 00:53:00,
2013-06-29 19:55:00,96.4,59.0,-100.00,ESE,113,1.0,4.0,29,0.00,,,0.00,meteohub,2013-06-30 00:55:00,
2013-06-29 19:57:00,96.4,59.0,-100.00,East,90,1.0,3.0,29,0.00,,,0.00,meteohub,2013-06-30 00:57:00,
2013-06-29 19:59:00,96.4,59.0,-100.00,ENE,68,0.0,3.0,29,0.00,,,0.00,meteohub,2013-06-30 00:59:00,
2013-06-29 20:01:00,96.3,59.7,-100.00,ENE,68,0.0,3.0,30,0.00,,,0.00,meteohub,2013-06-30 01:01:00,
2013-06-29 20:02:00,96.3,59.7,-100.00,ENE,68,0.0,3.0,30,0.00,,,0.00,meteohub,2013-06-30 01:02:00,
2013-06-29 20:07:00,95.9,59.5,-100.00,SE,135,1.0,1.0,30,0.00,,,0.00,meteohub,2013-06-30 01:07:00,
2013-06-29 20:09:00,95.7,59.4,-100.00,NE,45,2.0,2.0,30,0.00,,,0.00,meteohub,2013-06-30 01:09:00,
2013-06-29 20:13:00,95.7,59.4,-100.00,SE,135,4.0,4.0,30,0.00,,,0.00,meteohub,2013-06-30 01:13:00,
2013-06-29 20:15:00,95.5,59.2,-100.00,NE,45,0.0,4.0,30,0.00,,,0.00,meteohub,2013-06-30 01:15:00,
2013-06-29 20:17:00,95.5,59.2,-100.00,NE,45,0.0,4.0,30,0.00,,,0.00,meteohub,2013-06-30 01:17:00,
2013-06-29 20:19:00,95.5,59.2,-100.00,North,0,0.0,4.0,30,0.00,,,0.00,meteohub,2013-06-30 01:19:00,
2013-06-29 20:21:00,95.2,58.8,-100.00,ESE,113,0.0,4.0,30,0.00,,,0.00,meteohub,2013-06-30 01:21:00,
2013-06-29 20:23:00,95.2,58.8,-100.00,East,90,0.0,4.0,30,0.00,,,0.00,meteohub,2013-06-30 01:23:00,
2013-06-29 20:27:00,94.8,58.5,-100.00,SSE,158,0.0,4.0,30,0.00,,,0.00,meteohub,2013-06-30 01:27:00,
2013-06-29 20:29:00,94.8,58.5,-100.00,ESE,113,0.0,4.0,30,0.00,,,0.00,meteohub,2013-06-30 01:29:00,
2013-06-29 20:33:00,94.6,59.4,-100.00,ESE,113,0.0,0.0,31,0.00,,,0.00,meteohub,2013-06-30 01:33:00,
2013-06-29 20:39:00,93.9,58.6,-100.00,ENE,68,0.0,0.0,31,0.00,,,0.00,meteohub,2013-06-30 01:39:00,
2013-06-29 20:41:00,93.7,58.5,-100.00,ENE,68,0.0,0.0,31,0.00,,,0.00,meteohub,2013-06-30 01:41:00,
2013-06-29 20:43:00,93.7,58.5,-100.00,ENE,68,0.0,0.0,31,0.00,,,0.00,meteohub,2013-06-30 01:43:00,
2013-06-29 20:45:00,93.4,58.3,-100.00,ENE,68,0.0,0.0,31,0.00,,,0.00,meteohub,2013-06-30 01:45:00,
2013-06-29 20:47:00,93.4,58.3,-100.00,ENE,68,0.0,0.0,31,0.00,,,0.00,meteohub,2013-06-30 01:47:00,
2013-06-29 20:49:00,93.4,58.3,-100.00,ENE,68,0.0,0.0,31,0.00,,,0.00,meteohub,2013-06-30 01:49:00,
2013-06-29 20:51:00,93.0,58.8,-100.00,ENE,68,0.0,0.0,32,0.00,,,0.00,meteohub,2013-06-30 01:51:00,
2013-06-29 20:53:00,93.0,58.8,-100.00,ENE,68,0.0,0.0,32,0.00,,,0.00,meteohub,2013-06-30 01:53:00,
2013-06-29 20:57:00,92.5,58.3,-100.00,ENE,68,0.0,0.0,32,0.00,,,0.00,meteohub,2013-06-30 01:57:00,
2013-06-29 20:59:00,92.3,58.1,-100.00,ENE,68,0.0,0.0,32,0.00,,,0.00,meteohub,2013-06-30 01:59:00,
2013-06-29 21:01:00,92.1,58.1,-100.00,ENE,68,0.0,0.0,32,0.00,,,0.00,meteohub,2013-06-30 02:01:00,
2013-06-29 21:05:00,91.8,58.6,-100.00,ENE,68,0.0,0.0,33,0.00,,,0.00,meteohub,2013-06-30 02:05:00,
2013-06-29 21:07:00,91.8,58.6,-100.00,ENE,68,0.0,0.0,33,0.00,,,0.00,meteohub,2013-06-30 02:07:00,
2013-06-29 21:11:00,91.2,59.0,-100.00,ENE,68,0.0,0.0,34,0.00,,,0.00,meteohub,2013-06-30 02:11:00,
2013-06-29 21:13:00,91.2,59.0,-100.00,ENE,68,0.0,0.0,34,0.00,,,0.00,meteohub,2013-06-30 02:13:00,
2013-06-29 21:17:00,90.9,58.6,-100.00,ENE,68,0.0,0.0,34,0.00,,,0.00,meteohub,2013-06-30 02:17:00,
2013-06-29 21:21:00,90.7,59.2,-100.00,ENE,68,0.0,0.0,35,0.00,,,0.00,meteohub,2013-06-30 02:21:00,
2013-06-29 21:23:00,90.5,59.2,-100.00,ENE,68,0.0,0.0,35,0.00,,,0.00,meteohub,2013-06-30 02:23:00,
2013-06-29 21:25:00,90.3,59.0,-100.00,ENE,68,0.0,0.0,35,0.00,,,0.00,meteohub,2013-06-30 02:25:00,
2013-06-29 21:29:00,90.1,58.8,-100.00,NE,45,0.0,0.0,35,0.00,,,0.00,meteohub,2013-06-30 02:29:00,
2013-06-29 21:31:00,90.1,58.8,-100.00,NE,45,0.0,0.0,35,0.00,,,0.00,meteohub,2013-06-30 02:31:00,
2013-06-29 21:32:00,90.1,58.8,-100.00,NE,45,0.0,0.0,35,0.00,,,0.00,meteohub,2013-06-30 02:32:00,
2013-06-29 21:35:00,89.8,58.5,-100.00,NE,45,0.0,0.0,35,0.00,,,0.00,meteohub,2013-06-30 02:35:00,
2013-06-29 21:37:00,89.8,58.5,-100.00,NE,45,0.0,0.0,35,0.00,,,0.00,meteohub,2013-06-30 02:37:00,
2013-06-29 21:40:00,89.6,59.2,-100.00,NE,45,0.0,0.0,36,0.00,,,0.00,meteohub,2013-06-30 02:40:00,
2013-06-29 21:42:00,89.4,59.0,-100.00,NE,45,0.0,0.0,36,0.00,,,0.00,meteohub,2013-06-30 02:42:00,
2013-06-29 21:44:00,89.4,59.0,-100.00,NE,45,0.0,0.0,36,0.00,,,0.00,meteohub,2013-06-30 02:44:00,
2013-06-29 21:46:00,89.4,59.0,-100.00,NE,45,0.0,0.0,36,0.00,,,0.00,meteohub,2013-06-30 02:46:00,
2013-06-29 21:47:00,89.4,59.0,-100.00,NE,45,0.0,0.0,36,0.00,,,0.00,meteohub,2013-06-30 02:47:00,
2013-06-29 21:52:00,89.2,58.8,-100.00,NE,45,0.0,0.0,36,0.00,,,0.00,meteohub,2013-06-30 02:52:00,
2013-06-29 21:54:00,89.2,59.5,-100.00,NE,45,0.0,0.0,37,0.00,,,0.00,meteohub,2013-06-30 02:54:00,
2013-06-29 21:56:00,89.2,59.5,-100.00,NNW,338,0.0,0.0,37,0.00,,,0.00,meteohub,2013-06-30 02:56:00,
2013-06-29 21:58:00,88.9,59.2,-100.00,NNW,338,0.0,0.0,37,0.00,,,0.00,meteohub,2013-06-30 02:58:00,
2013-06-29 22:02:00,88.9,59.2,-100.00,SW,225,2.0,0.0,37,0.00,,,0.00,meteohub,2013-06-30 03:02:00,
2013-06-29 22:06:00,88.7,59.0,-100.00,NNE,23,0.0,2.0,37,0.00,,,0.00,meteohub,2013-06-30 03:06:00,
2013-06-29 22:08:00,88.7,59.0,-100.00,ESE,113,0.0,2.0,37,0.00,,,0.00,meteohub,2013-06-30 03:08:00,
2013-06-29 22:10:00,88.9,59.2,-100.00,NE,45,0.0,2.0,37,0.00,,,0.00,meteohub,2013-06-30 03:10:00,
2013-06-29 22:14:00,88.9,59.2,-100.00,ENE,68,0.0,2.0,37,0.00,,,0.00,meteohub,2013-06-30 03:14:00,
2013-06-29 22:16:00,88.9,59.2,-100.00,NE,45,0.0,2.0,37,0.00,,,0.00,meteohub,2013-06-30 03:16:00,
2013-06-29 22:17:00,88.9,59.2,-100.00,NE,45,0.0,2.0,37,0.00,,,0.00,meteohub,2013-06-30 03:17:00,
2013-06-29 22:22:00,89.2,59.5,-100.00,NNE,23,0.0,1.0,37,0.00,,,0.00,meteohub,2013-06-30 03:22:00,
2013-06-29 22:24:00,89.2,59.5,-100.00,NNE,23,0.0,1.0,37,0.00,,,0.00,meteohub,2013-06-30 03:24:00,
2013-06-29 22:26:00,89.2,59.5,-100.00,ESE,113,0.0,2.0,37,0.00,,,0.00,meteohub,2013-06-30 03:26:00,
2013-06-29 22:28:00,89.2,59.5,-100.00,ESE,113,0.0,2.0,37,0.00,,,0.00,meteohub,2013-06-30 03:28:00,
2013-06-29 22:32:00,89.2,59.5,-100.00,WNW,293,0.0,2.0,37,0.00,,,0.00,meteohub,2013-06-30 03:32:00,
2013-06-29 22:34:00,88.9,59.2,-100.00,WSW,248,0.0,2.0,37,0.00,,,0.00,meteohub,2013-06-30 03:34:00,
2013-06-29 22:36:00,88.9,59.2,-100.00,ENE,68,0.0,2.0,37,0.00,,,0.00,meteohub,2013-06-30 03:36:00,
2013-06-29 22:38:00,88.9,59.2,-100.00,WNW,293,0.0,2.0,37,0.00,,,0.00,meteohub,2013-06-30 03:38:00,
2013-06-29 22:40:00,88.7,59.0,-100.00,WNW,293,0.0,2.0,37,0.00,,,0.00,meteohub,2013-06-30 03:40:00,
2013-06-29 22:42:00,88.5,59.0,-100.00,ESE,113,0.0,1.0,37,0.00,,,0.00,meteohub,2013-06-30 03:42:00,
2013-06-29 22:47:00,88.3,58.8,-100.00,ESE,113,0.0,0.0,37,0.00,,,0.00,meteohub,2013-06-30 03:47:00,
2013-06-29 22:48:00,88.3,58.8,-100.00,ESE,113,0.0,0.0,37,0.00,,,0.00,meteohub,2013-06-30 03:48:00,
2013-06-29 22:50:00,88.2,59.4,-100.00,ESE,113,0.0,0.0,38,0.00,,,0.00,meteohub,2013-06-30 03:50:00,
2013-06-29 22:52:00,88.0,59.2,-100.00,ESE,113,0.0,0.0,38,0.00,,,0.00,meteohub,2013-06-30 03:52:00,
2013-06-29 22:54:00,88.0,59.2,-100.00,ESE,113,0.0,0.0,38,0.00,,,0.00,meteohub,2013-06-30 03:54:00,
2013-06-29 22:56:00,87.6,58.8,-100.00,ESE,113,0.0,0.0,38,0.00,,,0.00,meteohub,2013-06-30 03:56:00,
2013-06-29 22:58:00,87.6,58.8,-100.00,ESE,113,0.0,0.0,38,0.00,,,0.00,meteohub,2013-06-30 03:58:00,
2013-06-29 23:00:00,87.6,58.8,-100.00,ESE,113,0.0,0.0,38,0.00,,,0.00,meteohub,2013-06-30 04:00:00,
2013-06-29 23:02:00,87.4,58.6,-100.00,ESE,113,0.0,0.0,38,0.00,,,0.00,meteohub,2013-06-30 04:02:00,
2013-06-29 23:04:00,87.3,59.4,-100.00,ESE,113,0.0,0.0,39,0.00,,,0.00,meteohub,2013-06-30 04:04:00,
2013-06-29 23:08:00,87.1,59.2,-100.00,ESE,113,0.0,0.0,39,0.00,,,0.00,meteohub,2013-06-30 04:08:00,
2013-06-29 23:12:00,86.7,58.8,-100.00,ESE,113,0.0,0.0,39,0.00,,,0.00,meteohub,2013-06-30 04:12:00,
2013-06-29 23:14:00,86.7,58.8,-100.00,ESE,113,0.0,0.0,39,0.00,,,0.00,meteohub,2013-06-30 04:14:00,
2013-06-29 23:16:00,86.5,58.6,-100.00,ESE,113,0.0,0.0,39,0.00,,,0.00,meteohub,2013-06-30 04:16:00,
2013-06-29 23:17:00,86.5,58.6,-100.00,ESE,113,0.0,0.0,39,0.00,,,0.00,meteohub,2013-06-30 04:17:00,
2013-06-29 23:20:00,86.4,59.9,-100.00,NE,45,0.0,0.0,41,0.00,,,0.00,meteohub,2013-06-30 04:20:00,
2013-06-29 23:24:00,86.0,59.5,-100.00,NE,45,0.0,0.0,41,0.00,,,0.00,meteohub,2013-06-30 04:24:00,
2013-06-29 23:28:00,85.8,59.4,-100.00,NE,45,0.0,1.0,41,0.00,,,0.00,meteohub,2013-06-30 04:28:00,
2013-06-29 23:30:00,85.8,59.4,-100.00,NNE,23,0.0,1.0,41,0.00,,,0.00,meteohub,2013-06-30 04:30:00,
2013-06-29 23:32:00,85.8,59.4,-100.00,NNE,23,0.0,1.0,41,0.00,,,0.00,meteohub,2013-06-30 04:32:00,
2013-06-29 23:38:00,85.6,59.2,-100.00,NNE,23,0.0,1.0,41,0.00,,,0.00,meteohub,2013-06-30 04:38:00,
2013-06-29 23:40:00,85.6,59.9,-100.00,NNE,23,0.0,1.0,42,0.00,,,0.00,meteohub,2013-06-30 04:40:00,
2013-06-29 23:44:00,85.5,59.7,-100.00,NNE,23,1.0,1.0,42,0.00,,,0.00,meteohub,2013-06-30 04:44:00,
2013-06-29 23:46:00,85.5,59.7,-100.00,NNE,23,0.0,1.0,42,0.00,,,0.00,meteohub,2013-06-30 04:46:00,
2013-06-29 23:47:00,85.5,59.7,-100.00,NNE,23,0.0,1.0,42,0.00,,,0.00,meteohub,2013-06-30 04:47:00,
2013-06-29 23:48:00,85.3,59.5,-100.00,NNE,23,0.0,1.0,42,0.00,,,0.00,meteohub,2013-06-30 04:48:00,
2013-06-29 23:52:00,85.5,60.4,-100.00,ENE,68,0.0,1.0,43,0.00,,,0.00,meteohub,2013-06-30 04:52:00,
2013-06-29 23:56:00,85.6,60.6,-100.00,North,0,0.0,3.0,43,0.00,,,0.00,meteohub,2013-06-30 04:56:00,